Weather in Shorchekasy

Russia / Chuvash Republic     55°58′34″N   47°28′22″E
temp.,
°C
wind,
m/s
gust,
m/s
humid.,
%
clouds,
%
prec.,
mm/h
press.,
hPa
HPBL,
m
17 may, tue
tue1700:00+6w379516 0.0 1001169
03:00+6wsw3795100 0.0 1000238
06:00+8w488735 0.0 1000442
09:00+9w4576100 0.0 1000705
12:00+10wsw4470100 0.1 1000940
15:00+13w3460100 0.1 10001438
18:00+10wnw357792 0.6 1000133
21:00+8wnw248938 1.3 100169
18 may, wed
wed1800:00+6w369298 0.0 1001133
03:00+7wnw4992100 0.0 1000301
06:00+7nw5895100 0.1 1000624
09:00+7n61095100 1.7 1002654
12:00+8nnw6887100 0.3 1004774
15:00+8nw6883100 0.5 1005762
18:00+8nw478239 0.1 1007710
21:00+5wnw3387100 0.1 100756
19 may, thu
thu1900:00+5wnw3691100 0.2 1008326
03:00+4nnw269398 1.8 1008487
06:00+5wnw468899 0.0 1008554
09:00+4wnw359799 1.9 1009490
12:00+9wnw466599 0.5 10081530
15:00+9wnw5665100 1.4 10081545
18:00+8wnw58705 0.8 1009879
21:00+3wnw34875 0.9 101050
20 may, fri
fri2000:00+2w3687100 0.0 1010106
03:00+3w4893100 0.4 1011354
06:00+4nw4784100 0.3 1011468
09:00+7nw576164 0.4 10121371
12:00+8nnw786293 1.2 10121488
15:00+8nnw7964100 2.3 10131548
18:00+6nnw6108097 0.6 10141044
21:00+4nw3790100 0.7 1015213
21 may, sat
sat2100:00+2w369277 0.0 1013101
03:00+1nw499550 0.0 1013234
06:00+2nnw597916 0.0 1013453
09:00+6nw685964 0.0 10121341
12:00+8nnw675297 0.1 10111831
15:00+9n574999 0.1 10111867
18:00+8nne466084 0.0 1012821
21:00+4ne3675100 0.0 1012161